sat.trackr.live / text

‹ back to catalog

STARLINK-5070

NORAD 55654 · 2023-021AC

PAYLOAD ACTIVE UNKNOWN

§ Identity

Operator
Country
US
Launch date
2023-02-17
Launch site
AFWTR
Launch vehicle
Mass (kg)
RCS (m²)

Purposes: comms

External: N2YO · Heavens-Above · Gunter

§ Orbital elements

Epoch: 2026-09-20T16:05:39.614496Z

Period
96.11 min
Inclination
69.9992°
Eccentricity
0.0003151
Mean motion
14.98336386 rev/d
Perigee alt
569.8 km
Apogee alt
574.2 km
Semi-major
6,950.2 km
B*
4.4330e-5
RAAN
53.0012°
Arg perigee
273.4371°
Mean anomaly
86.6427°
Rev number
19,799

§ Raw data

STARLINK-50701 55654U 23021AC  26263.67059739  .00000436  00000+0  44330-4 0  99982 55654  69.9992  53.0012 0003151 273.4371  86.6427 14.98336386197998

JSON: /api/v1/satellites/55654 · /tle

For live sub-satellite position, see the globe view (requires WebGL).

§ Visibility from observer

Set your observer location to see the next 7 days of passes ≥ 10°. The values pass through the URL so the page stays shareable.

No JS? Fill the form by hand. The geolocation button needs JavaScript.